Weather in Kecskemét

Hungary     46°54′09″N   19°41′02″E
temp.,
°C
wind,
m/s
gust,
m/s
humid.,
%
clouds,
%
prec.,
mm/h
press.,
hPa
HPBL,
m
13 june, sun
sun1323:00+18wsw4781100 0.3 1013122
02:00+17w51293100 1.6 1013380
05:00+16wnw8168888 0.4 1013525
08:00+17nw913640 0.4 1015862
11:00+20nnw911480 0.0 10171724
14:00+22nnw810395 0.0 10172589
17:00+21nw894641 0.0 10172469
20:00+17nw813552 0.0 1018564
14 june, mon
mon1423:00+14n6105189 0.0 1020231
02:00+12nnw476115 0.0 1021181
05:00+10nw367366 0.0 1020104
08:00+13nnw356612 0.0 1021308
11:00+19nnw22455 0.0 10211415
14:00+20n2439100 0.0 10201885
17:00+21n2442100 0.0 10181719
20:00+17ene115788 0.0 101911
15 june, tue
tue1523:00+16ene235742 0.0 102051
02:00+14nne12595 0.0 102011
05:00+13nne22651 0.0 101911
08:00+18nnw22553 0.0 1020310
11:00+22nnw334531 0.0 10191421
14:00+24nnw334063 0.0 10181883
17:00+24nw224196 0.0 10171951
20:00+20wnw2258100 0.0 101611
16 june, wed
wed1623:00+17nw2263100 0.0 101720
02:00+16n2266100 0.0 101720
05:00+15ne337988 0.0 101736
08:00+19nne346199 0.0 1018302
11:00+23ne4449100 0.0 10181159
14:00+26ne454349 0.0 10171903
17:00+26ne454216 0.0 10161801
20:00+22e22620 0.0 101611
17 june, thu
thu1723:00+19nnw11651 0.0 101711
02:00+17ne33791 0.0 101838
05:00+16ne36900 0.0 101892
08:00+20ene45722 0.0 1018344
11:00+25ne44550 0.0 1018953
14:00+27ne33470 0.0 10171565
17:00+27ne33470 0.0 10161659
20:00+23ene22660 0.0 101620